GFSFLT1_700_temp_045.txt.gz
Temp
6 5 4 4 5 4 4 3 3 2 2 2 2 2 -0 0 0 0 0 0 1 1 0 0 -0 -1 -1 -1 -1 -2 -2 -1
5 5 5 4 4 4 4 3 3 2 2 2 2 1 0 1 1 0 0 1 0 -1 -1 -1 -1 -2 -2 -2 -1 -1 -1 -2
5 5 5 4 4 4 4 3 3 2 2 1 1 1 1 1 0 -0 -0 -0 -1 -1 -1 -2 -2 -2 -2 -2 -2 -2 -3 -3
5 5 5 5 5 4 4 3 2 2 1 1 0 0 -0 -1 -1 -1 -1 -1 -1 -2 -2 -2 -3 -3 -3 -3 -4 -4 -4 -4
6 5 6 5 4 4 3 2 2 1 0 -0 -0 -1 -1 -2 -2 -2 -2 -2 -2 -2 -3 -3 -3 -4 -4 -4 -5 -5 -6 -7
5 5 5 4 4 3 3 2 1 1 1 0 -0 -1 -1 -2 -2 -2 -2 -3 -2 -3 -3 -4 -4 -4 -5 -5 -6 -7 -8 -8
5 4 4 4 3 3 3 2 1 1 0 0 -0 -1 -2 -2 -3 -3 -3 -4 -4 -5 -5 -5 -5 -5 -6 -7 -7 -7 -9 -10
4 4 4 3 3 2 1 1 1 1 0 -0 -1 -1 -2 -2 -2 -3 -4 -4 -4 -5 -5 -5 -6 -6 -7 -8 -8 -10 -10 -11
4 3 3 3 2 2 1 1 1 0 -0 -1 -1 -1 -2 -2 -3 -3 -3 -4 -4 -5 -5 -6 -6 -7 -8 -9 -9 -11 -10 -11
3 3 3 2 2 2 1 1 0 0 -0 -1 -1 -2 -2 -3 -3 -3 -4 -5 -5 -6 -6 -7 -7 -8 -8 -9 -10 -12 -11 -11
2 1 2 2 2 1 1 0 -0 -0 -1 -1 -1 -2 -3 -3 -3 -4 -5 -5 -6 -6 -7 -7 -8 -8 -9 -9 -11 -12 -12 -12
1 1 1 2 1 1 1 0 -0 -0 -1 -2 -2 -3 -3 -4 -4 -5 -5 -6 -6 -7 -7 -8 -9 -9 -10 -10 -11 -12 -12 -12
1 0 1 2 1 1 1 0 -0 -1 -2 -2 -3 -3 -4 -4 -5 -5 -6 -7 -7 -7 -8 -9 -9 -10 -11 -11 -11 -12 -13 -14
1 1 2 2 1 1 1 0 -1 -1 -2 -3 -3 -3 -4 -5 -6 -6 -7 -7 -8 -8 -9 -9 -10 -10 -11 -12 -12 -13 -13 -14
1 2 2 1 1 1 0 -0 -1 -1 -2 -4 -4 -4 -5 -6 -6 -7 -7 -8 -8 -9 -10 -10 -11 -11 -11 -12 -13 -14 -14 -15
3 2 2 1 1 0 -0 -1 -2 -2 -3 -5 -5 -6 -6 -6 -7 -7 -8 -8 -9 -10 -10 -11 -11 -12 -12 -13 -14 -14 -15 -15
2 1 0 1 0 0 -1 -2 -2 -3 -3 -5 -6 -8 -8 -8 -8 -8 -8 -9 -10 -10 -11 -12 -12 -12 -12 -13 -14 -15 -15 -15
1 1 0 -0 -0 -1 -2 -2 -2 -3 -4 -6 -8 -8 -8 -9 -8 -8 -9 -10 -10 -11 -11 -12 -12 -12 -13 -14 -15 -15 -15 -15
1 0 -0 -0 -1 -2 -3 -2 -3 -4 -6 -9 -9 -9 -9 -8 -9 -9 -10 -10 -11 -12 -12 -12 -13 -13 -13 -14 -15 -15 -15 -15

GFSFLT1_700_temp_048.txt.gz
Temp
5 4 3 3 6 5 4 4 3 3 3 2 2 3 2 2 2 1 0 1 1 1 1 1 1 1 1 1 0 -0 -1 -0
5 6 5 4 5 5 5 4 3 3 3 2 2 3 2 2 2 1 1 1 0 0 0 -0 0 0 -0 -0 -0 -1 -1 -1
6 6 5 4 5 5 4 4 3 3 3 2 2 2 2 1 1 1 0 -0 -0 -0 -0 -0 -0 -1 -2 -2 -2 -2 -2 -2
5 6 5 5 5 5 4 4 3 3 2 2 2 1 1 0 0 -0 -0 -1 -1 -1 -1 -1 -1 -2 -2 -2 -3 -3 -3 -3
4 5 6 5 5 4 4 4 3 3 2 2 1 -0 -0 -1 -1 -1 -1 -1 -1 -1 -1 -2 -2 -3 -3 -3 -4 -4 -4 -4
4 3 4 5 5 4 4 4 3 3 1 1 0 -1 -2 -2 -2 -2 -2 -3 -2 -2 -2 -2 -2 -3 -4 -4 -5 -5 -6 -6
4 3 3 5 5 4 4 3 2 2 1 1 0 0 -0 -1 -1 -1 -2 -3 -3 -5 -5 -4 -4 -5 -5 -5 -6 -6 -7 -7
3 2 2 3 3 3 3 2 2 2 1 1 0 -0 -1 -1 -2 -2 -2 -3 -4 -4 -4 -5 -5 -5 -6 -6 -7 -7 -8 -9
3 3 3 4 3 3 2 2 1 2 1 1 0 -0 -1 -1 -2 -2 -3 -3 -3 -4 -4 -5 -5 -6 -6 -7 -7 -8 -9 -9
2 2 2 3 3 3 2 1 1 1 1 1 0 -1 -1 -2 -2 -3 -3 -3 -4 -4 -5 -5 -6 -6 -7 -8 -8 -9 -10 -10
2 1 1 1 2 2 2 1 1 1 1 1 -1 -1 -2 -2 -2 -3 -3 -4 -4 -5 -5 -6 -6 -7 -8 -8 -9 -9 -10 -11
3 1 1 1 0 1 2 2 0 -0 1 -0 -1 -2 -2 -2 -3 -4 -4 -5 -5 -5 -6 -6 -7 -8 -9 -9 -10 -10 -11 -12
2 1 1 1 0 -0 0 1 -0 0 -0 0 -1 -2 -2 -2 -3 -5 -5 -6 -6 -7 -7 -7 -8 -9 -9 -10 -10 -11 -11 -12
2 1 1 1 0 0 0 1 0 0 0 -1 -2 -2 -3 -3 -5 -6 -7 -7 -8 -8 -7 -8 -9 -9 -10 -11 -11 -12 -12 -13
3 2 1 1 0 0 -1 -1 0 0 -1 -2 -2 -3 -3 -4 -7 -8 -8 -8 -9 -8 -8 -9 -9 -10 -11 -11 -12 -12 -13 -14
3 2 1 0 0 -1 -2 -1 0 -1 -2 -3 -3 -3 -4 -5 -8 -9 -9 -10 -9 -9 -9 -9 -10 -11 -12 -12 -12 -13 -13 -14
3 2 1 -0 -1 -2 -1 -1 -2 -2 -3 -2 -3 -5 -6 -8 -9 -9 -11 -10 -9 -9 -10 -10 -11 -12 -12 -13 -13 -14 -14 -15
1 1 -1 -1 -2 -2 -2 -2 -3 -3 -3 -3 -5 -6 -10 -9 -10 -10 -10 -9 -9 -9 -10 -11 -12 -12 -12 -13 -13 -14 -15 -15
1 0 -1 -2 -2 -3 -3 -3 -3 -3 -3 -5 -6 -9 -10 -10 -11 -10 -9 -9 -9 -10 -11 -12 -12 -12 -13 -13 -14 -15 -15 -16

GFSFLT1_700_temp_051.txt.gz
Temp
5 6 6 6 5 5 5 4 4 3 3 3 3 3 3 3 3 2 2 1 1 1 0 1 1 1 1 1 1 1 1 1
5 4 5 6 6 5 5 4 3 3 4 3 3 3 3 3 3 2 2 1 1 1 1 1 1 1 0 0 0 -0 -0 -0
6 4 5 5 6 6 5 4 4 3 3 3 3 3 2 2 1 1 1 1 0 0 0 -0 -0 -0 -0 -1 -1 -1 -1 -1
6 5 4 5 5 5 4 4 3 3 3 3 3 2 1 1 1 0 0 -0 -1 -1 -1 -1 -1 -1 -1 -1 -2 -2 -2 -2
5 5 5 4 5 5 4 4 3 3 3 3 2 1 1 1 0 0 -0 -0 -1 -1 -1 -1 -1 -1 -2 -2 -2 -3 -3 -3
6 5 5 4 4 4 4 4 4 3 3 3 2 1 1 1 1 0 -0 -1 -2 -2 -2 -1 -1 -2 -2 -2 -3 -4 -4 -4
5 5 4 3 4 5 4 4 3 3 3 2 1 1 1 0 -0 -1 -2 -2 -2 -2 -3 -2 -3 -4 -4 -5 -5 -5 -5 -6
5 4 4 3 5 4 4 4 3 2 2 1 1 1 0 -0 -1 -1 -2 -3 -2 -2 -3 -4 -4 -5 -5 -5 -5 -6 -6 -7
5 5 4 4 4 3 3 3 2 2 1 1 1 0 0 -0 -1 -2 -2 -2 -3 -3 -5 -5 -5 -5 -5 -5 -6 -6 -7 -8
4 4 5 5 4 3 3 2 1 1 1 1 1 1 0 -1 -2 -2 -2 -3 -3 -3 -6 -5 -5 -6 -6 -7 -7 -7 -8 -9
4 4 5 4 3 2 2 1 1 0 0 1 1 0 -0 -2 -2 -2 -2 -3 -3 -4 -7 -6 -6 -7 -7 -7 -8 -8 -9 -10
4 4 3 2 2 2 1 0 -0 -1 -1 -1 -1 -1 -1 -2 -2 -3 -3 -3 -4 -6 -7 -7 -8 -8 -8 -8 -8 -9 -10 -11
3 3 2 1 1 0 -0 -1 -1 -1 -1 -1 -1 -2 -2 -2 -2 -3 -4 -4 -7 -9 -9 -9 -9 -8 -8 -9 -9 -10 -10 -11
3 3 2 1 1 1 0 0 -0 -0 -1 -1 -1 -2 -2 -2 -3 -3 -4 -6 -8 -9 -9 -11 -9 -8 -9 -10 -10 -11 -11 -12
4 3 2 2 1 0 1 0 -0 -1 -1 -1 -2 -2 -3 -3 -4 -5 -6 -8 -10 -10 -10 -10 -9 -9 -9 -10 -11 -12 -12 -13
3 3 3 2 1 1 1 -0 -1 -1 -2 -2 -2 -3 -3 -4 -5 -7 -8 -11 -11 -10 -10 -11 -10 -9 -10 -11 -12 -12 -13 -13
4 3 2 2 1 1 -1 -1 -2 -3 -3 -3 -3 -3 -3 -5 -7 -9 -12 -11 -11 -12 -11 -10 -10 -10 -11 -12 -12 -13 -13 -14
3 2 2 1 1 0 -1 -2 -3 -3 -3 -3 -4 -3 -4 -7 -9 -11 -10 -11 -11 -11 -10 -10 -11 -11 -12 -12 -13 -13 -14 -14
2 1 1 1 0 -1 -2 -2 -3 -3 -4 -4 -4 -4 -6 -8 -9 -9 -10 -10 -10 -10 -10 -11 -12 -12 -12 -13 -13 -13 -14 -15

GFSFLT1_700_temp_054.txt.gz
Temp
6 6 5 5 5 5 4 4 4 4 4 4 4 4 4 3 3 3 3 2 2 1 1 0 0 0 0 0 0 1 1 1
6 6 6 6 6 5 5 4 4 4 4 4 3 3 3 3 3 3 2 2 1 1 0 0 0 0 0 1 0 -0 -0 -0
5 6 6 6 6 5 5 4 4 4 3 3 3 3 3 3 2 2 1 1 1 0 0 -0 0 -0 -1 -1 -1 -1 -1 -1
6 5 6 6 6 5 5 4 4 3 3 3 3 3 2 2 1 1 1 0 -0 -0 -0 -1 -1 -1 -1 -1 -1 -2 -2 -2
5 6 6 5 5 4 4 4 3 3 3 3 3 2 2 1 1 1 0 -0 -0 -1 -1 -1 -1 -2 -2 -2 -2 -2 -2 -2
7 7 6 5 4 4 3 3 3 3 3 2 2 2 2 1 1 0 -0 -0 -0 -1 -1 -1 -2 -2 -2 -2 -2 -3 -3 -4
6 6 5 5 4 3 3 2 3 3 3 3 2 2 2 1 1 0 -0 -0 -1 -1 -2 -2 -3 -3 -2 -3 -4 -5 -5 -6
6 6 5 4 4 4 4 3 3 3 3 2 2 2 1 1 0 -0 -1 -1 -2 -2 -3 -3 -3 -4 -4 -6 -6 -6 -7 -7
6 5 5 4 4 4 3 3 4 3 2 2 1 1 0 -0 -1 -2 -2 -2 -2 -2 -3 -3 -4 -4 -5 -6 -6 -6 -7 -7
5 5 5 5 4 3 3 3 3 2 2 1 -0 -1 -1 -1 -2 -2 -2 -2 -2 -3 -3 -4 -4 -5 -7 -7 -7 -8 -8 -8
5 5 4 4 3 3 3 2 2 2 1 0 -1 -1 -1 -1 -2 -2 -2 -2 -3 -3 -4 -4 -5 -7 -7 -8 -9 -8 -8 -8
5 4 4 4 4 3 2 1 1 -0 -0 -1 -1 -1 -2 -2 -1 -2 -2 -2 -3 -4 -4 -5 -8 -8 -9 -9 -10 -9 -9 -9
5 5 5 4 4 3 2 0 0 -0 -0 -1 -1 -1 -1 -2 -2 -2 -2 -3 -3 -4 -5 -8 -8 -9 -10 -10 -10 -10 -10 -10
5 4 4 3 2 1 1 1 0 -0 -0 -0 -1 -1 -2 -2 -3 -3 -3 -3 -4 -5 -7 -8 -9 -11 -11 -10 -10 -10 -10 -11
4 4 3 3 2 2 1 -0 0 0 -1 -1 -1 -2 -3 -3 -3 -3 -3 -4 -5 -7 -8 -9 -10 -11 -11 -10 -10 -11 -11 -12
4 3 3 2 2 1 1 0 0 -0 -1 -2 -2 -3 -3 -4 -3 -4 -4 -5 -6 -8 -9 -10 -10 -10 -10 -10 -11 -11 -12 -12
4 3 3 2 2 1 1 0 -0 -0 -1 -2 -3 -3 -3 -3 -4 -4 -4 -6 -8 -9 -9 -10 -10 -10 -11 -11 -11 -12 -12 -13
3 3 3 2 1 1 0 0 0 -0 -1 -2 -3 -3 -4 -4 -4 -5 -8 -8 -9 -9 -10 -10 -10 -11 -11 -12 -12 -13 -13 -13
3 2 2 1 1 1 1 -0 -1 -2 -2 -3 -3 -3 -4 -4 -6 -7 -8 -9 -9 -10 -10 -10 -11 -11 -12 -12 -12 -13 -13 -14

GFSFLT1_700_temp_060.txt.gz
Temp
4 4 4 4 3 3 3 3 4 3 3 3 3 3 2 2 2 2 2 2 1 1 0 0 0 -0 -1 -1 -1 -1 -1 -1
4 4 4 4 4 4 4 4 3 3 3 3 3 2 2 2 2 3 2 1 1 1 0 0 -0 -0 -1 -1 -1 -1 -1 -1
5 5 5 5 5 4 4 4 4 3 3 3 3 3 3 2 2 2 1 1 1 1 0 -0 -0 -0 -1 -1 -1 -1 -1 -1
6 6 6 5 5 5 5 4 4 4 3 3 3 3 2 2 1 1 1 1 1 0 0 0 -0 -0 -1 -1 -1 -1 -2 -2
6 6 6 6 5 5 5 4 4 3 3 3 3 2 2 1 1 1 1 1 1 0 0 -0 -0 -1 -1 -1 -2 -2 -3 -2
6 6 6 5 5 4 4 4 3 3 2 2 2 2 2 2 2 2 1 1 0 -0 -0 -0 -1 -1 -1 -2 -2 -2 -3 -4
6 6 6 5 5 4 4 3 3 3 3 2 2 2 2 1 2 1 1 0 -0 -1 -1 -1 -1 -2 -2 -2 -3 -3 -4 -4
7 6 6 6 5 4 4 3 4 3 3 3 2 2 2 1 2 1 1 0 -0 -1 -1 -2 -2 -2 -2 -3 -3 -4 -4 -5
7 6 6 6 5 4 4 3 2 3 3 2 2 2 2 2 1 1 0 -0 -1 -1 -2 -2 -3 -3 -3 -4 -3 -4 -5 -5
7 6 6 5 5 4 4 3 3 3 3 2 2 2 1 2 1 0 0 -1 -1 -1 -2 -2 -3 -4 -5 -4 -5 -5 -5 -7
6 6 6 5 4 4 3 3 3 2 2 2 2 2 1 1 1 0 -0 -1 -2 -3 -3 -4 -4 -5 -5 -5 -5 -5 -7 -7
6 6 5 5 5 3 3 2 3 2 2 2 2 1 1 1 -0 -1 -1 -2 -3 -3 -4 -4 -4 -4 -5 -5 -5 -6 -7 -7
7 6 6 6 5 4 3 3 3 2 2 2 1 1 1 0 -1 -1 -2 -3 -3 -4 -4 -4 -5 -4 -5 -6 -6 -7 -8 -8
6 6 6 5 4 4 3 3 2 2 2 1 1 1 -0 -1 -2 -1 -2 -3 -3 -4 -4 -4 -5 -6 -6 -7 -7 -8 -9 -9
6 6 5 4 4 3 3 2 2 2 1 1 0 0 -0 -1 -2 -2 -3 -3 -3 -4 -4 -5 -5 -6 -7 -8 -9 -9 -9 -9
5 5 5 4 3 3 2 2 2 1 1 0 0 -0 -0 -2 -3 -3 -2 -3 -3 -5 -4 -6 -7 -7 -8 -9 -10 -10 -10 -10
5 5 4 4 3 2 2 1 1 1 0 -0 -1 -1 -1 -3 -2 -3 -3 -3 -4 -5 -5 -6 -7 -8 -9 -10 -10 -10 -10 -10
4 4 4 4 3 2 2 2 1 1 -0 -1 -1 -2 -3 -2 -3 -3 -4 -4 -6 -7 -7 -7 -8 -9 -10 -10 -10 -10 -10 -11
3 3 3 3 2 2 1 1 0 -0 -1 -2 -2 -4 -2 -3 -3 -4 -5 -6 -6 -7 -8 -9 -9 -10 -10 -10 -10 -10 -11 -11

GFSFLT1_700_temp_063.txt.gz
Temp
3 3 2 2 2 2 2 3 3 3 3 3 3 3 2 2 2 2 2 1 1 1 1 1 0 0 -0 -1 -1 -1 -1 -1
4 4 3 3 3 3 3 3 3 3 3 3 3 2 2 2 2 2 2 1 2 1 1 1 0 0 -0 -1 -1 -1 -1 -1
5 5 4 4 4 4 4 4 3 3 3 2 2 2 2 2 2 2 1 2 1 1 1 1 0 0 -0 -1 -1 -1 -1 -1
6 6 5 5 5 4 4 4 3 3 3 3 3 3 2 2 2 1 2 2 2 1 1 0 0 -0 -1 -1 -1 -1 -1 -2
6 6 6 6 5 5 5 4 4 4 3 3 3 2 2 2 1 1 2 2 1 1 1 0 0 -0 -1 -1 -1 -2 -2 -2
6 6 6 6 5 5 5 4 4 3 3 3 2 2 2 1 1 1 1 1 1 1 1 0 -0 -1 -1 -2 -2 -3 -3 -3
6 6 6 5 5 5 4 4 3 3 3 2 2 2 2 1 1 1 1 1 1 1 0 -0 -1 -2 -2 -2 -3 -3 -3 -4
6 6 6 6 5 5 4 4 3 3 3 3 2 2 2 2 1 1 1 1 1 0 -1 -1 -1 -2 -3 -3 -3 -4 -4 -4
7 6 6 6 5 4 3 4 4 3 2 1 1 1 2 2 1 1 1 1 -0 -1 -1 -2 -2 -3 -3 -4 -4 -3 -4 -4
7 7 6 6 5 5 5 4 3 3 2 2 2 2 2 1 1 1 1 0 -0 -1 -2 -2 -2 -2 -3 -4 -4 -4 -5 -5
7 7 6 5 5 5 4 4 3 3 2 2 2 2 2 1 1 1 0 -1 -1 -1 -2 -2 -3 -4 -4 -4 -4 -5 -5 -6
7 6 6 6 5 5 4 4 3 2 2 2 2 2 1 1 1 0 -0 -1 -2 -1 -2 -2 -3 -3 -4 -5 -5 -5 -6 -6
7 7 7 6 6 6 5 4 3 2 2 2 2 1 1 1 0 -1 -1 -2 -1 -2 -2 -4 -3 -3 -5 -5 -5 -6 -6 -7
6 6 6 6 5 5 4 4 3 3 2 2 1 1 -0 -0 -1 -1 -1 -2 -3 -3 -3 -3 -4 -5 -5 -5 -6 -6 -7 -8
5 5 6 5 5 4 3 3 3 2 2 2 1 1 0 -0 -1 -2 -0 -3 -4 -3 -3 -4 -5 -5 -6 -6 -7 -7 -8 -9
6 5 5 5 4 4 3 2 2 2 1 1 1 0 -0 -1 -1 -2 -2 -4 -3 -5 -4 -5 -5 -6 -6 -7 -8 -9 -10 -10
6 5 5 5 4 4 3 3 2 2 1 1 0 0 0 -1 -1 -2 -3 -3 -4 -4 -5 -6 -5 -7 -8 -8 -9 -10 -10 -10
5 5 4 4 4 4 3 3 2 2 1 0 0 -0 -3 -3 -2 -3 -3 -3 -4 -6 -6 -6 -7 -8 -9 -9 -10 -10 -10 -10
4 4 4 3 3 3 3 2 1 1 0 -0 -1 -3 -3 -3 -3 -5 -5 -5 -6 -6 -7 -8 -8 -9 -9 -10 -10 -10 -10 -11

GFSFLT1_700_temp_066.txt.gz
Temp
3 2 2 2 1 1 1 2 2 2 3 3 3 3 2 2 2 1 1 1 1 1 1 1 1 1 1 0 -0 -0 -1 -1
4 3 3 3 3 2 2 2 3 3 3 3 3 3 3 2 2 2 2 1 1 1 1 1 1 1 1 0 -0 -0 -0 -1
4 4 4 4 4 4 4 4 3 4 3 3 3 2 2 2 2 2 1 1 1 1 2 2 2 1 1 0 -0 -0 -1 -1
5 6 6 5 5 5 4 4 4 4 3 3 3 3 3 3 2 1 1 1 1 2 2 2 1 1 0 -0 -0 -1 -2 -2
6 6 6 6 5 5 4 4 4 3 3 3 3 3 2 2 1 1 1 0 1 2 2 1 1 1 0 -1 -1 -1 -2 -3
6 6 6 5 5 5 4 4 4 4 3 3 3 2 2 2 1 1 1 1 1 1 1 1 1 0 -1 -1 -2 -2 -2 -3
6 6 6 5 5 5 5 4 4 4 3 3 3 2 2 2 2 2 1 0 0 1 1 1 0 -1 -1 -2 -2 -3 -2 -3
6 6 6 6 5 5 5 4 4 4 3 3 3 2 1 2 2 2 1 1 1 1 0 0 -1 -1 -2 -3 -2 -3 -3 -4
7 6 6 6 6 5 5 4 4 4 3 3 3 2 2 2 2 1 1 1 0 0 0 -0 -1 -1 -2 -3 -3 -4 -3 -4
7 7 6 6 6 5 5 5 4 4 3 3 2 1 2 2 2 1 1 1 1 1 0 -0 -1 -2 -3 -2 -3 -3 -4 -4
7 7 7 6 6 5 5 4 4 4 4 3 2 2 2 1 1 1 1 1 0 -0 -1 -2 -2 -2 -3 -4 -4 -5 -4 -5
7 7 7 7 6 6 5 4 4 4 3 3 2 2 2 2 1 1 0 -0 -1 -1 -2 -2 -2 -2 -3 -3 -5 -4 -4 -5
7 7 6 6 6 6 5 5 4 4 3 3 2 2 2 1 0 -0 -1 -1 -1 -1 -2 -2 -3 -3 -3 -3 -4 -5 -5 -6
6 6 6 6 6 6 5 5 4 4 3 3 3 2 1 1 0 -0 -0 -1 -1 -2 -3 -2 -3 -3 -4 -5 -5 -6 -6 -6
6 6 6 6 5 5 5 5 4 4 3 3 2 2 1 1 0 -0 0 -1 -1 -2 -3 -3 -4 -4 -5 -5 -6 -6 -7 -8
6 6 5 5 5 5 4 4 3 3 3 2 2 2 1 1 0 0 -0 -1 -1 -3 -3 -3 -4 -5 -6 -6 -6 -7 -8 -8
6 6 6 5 5 4 4 3 3 3 3 2 2 1 1 0 -0 -0 -1 -2 -3 -4 -4 -5 -5 -6 -7 -7 -7 -8 -8 -9
5 5 5 5 5 4 4 4 3 3 2 2 1 1 0 0 -0 -2 -3 -4 -4 -5 -5 -5 -5 -7 -7 -8 -8 -9 -9 -10
4 4 4 4 4 4 4 3 3 3 2 1 1 0 -0 -2 -3 -3 -4 -5 -5 -5 -5 -6 -7 -7 -8 -9 -9 -10 -10 -10

GFSFLT1_700_temp_069.txt.gz
Temp
3 3 3 3 1 2 1 1 1 1 1 2 2 1 1 1 2 2 1 1 1 1 1 1 1 1 1 1 1 0 0 -0
4 3 3 3 3 2 2 2 2 1 2 2 2 2 2 2 2 2 2 2 1 1 1 1 1 1 1 1 1 0 0 -1
4 4 4 4 3 4 3 3 3 3 3 3 3 3 3 3 3 2 2 2 2 1 1 1 1 1 1 1 1 0 -0 -1
5 5 5 4 4 4 3 3 3 3 3 3 3 3 3 3 3 3 2 2 1 1 1 1 1 1 1 1 1 -0 -1 -1
5 5 5 5 5 4 4 4 4 4 4 3 3 3 3 3 3 2 2 1 1 1 1 1 1 1 1 1 -0 -1 -1 -2
6 6 6 6 5 5 5 5 4 4 4 4 3 3 3 3 3 2 2 2 1 0 0 0 1 1 1 0 -1 -1 -2 -2
6 6 6 6 5 5 5 5 5 4 4 4 3 3 2 2 2 2 1 2 1 1 1 0 1 1 0 -0 -1 -2 -2 -2
5 5 5 6 6 6 5 5 5 4 4 4 3 3 3 2 2 2 1 1 2 1 1 1 0 -0 -0 -1 -1 -2 -2 -3
6 6 5 6 6 6 6 5 5 5 4 4 3 3 2 2 1 2 2 2 1 1 1 1 0 -0 -1 -1 -1 -2 -2 -3
7 6 5 5 6 6 6 5 5 4 4 4 3 3 3 2 2 1 2 1 1 1 1 0 -0 -0 -1 -1 -2 -2 -3 -3
7 6 6 5 5 6 6 5 5 4 4 4 3 3 3 2 2 2 1 1 1 1 0 -0 -1 -0 -1 -2 -2 -2 -3 -3
7 7 6 5 6 6 6 6 5 5 4 4 4 3 3 2 2 2 1 1 1 -0 -1 -0 -1 -1 -1 -2 -2 -3 -3 -4
7 7 7 7 7 6 6 6 5 4 4 4 4 3 3 3 2 2 2 1 -0 -0 -1 -1 -0 -1 -2 -2 -2 -3 -4 -4
6 6 6 6 6 6 6 5 5 5 5 5 4 3 3 2 2 1 1 1 -0 -1 -1 -1 -2 -2 -2 -3 -4 -4 -5 -5
6 5 6 6 6 6 6 6 6 5 5 4 4 3 3 2 2 1 1 0 -0 -1 -1 -2 -2 -2 -3 -4 -4 -5 -5 -5
6 5 5 6 6 6 5 5 5 5 4 4 3 3 3 2 2 1 0 0 -0 -1 -2 -3 -3 -4 -4 -4 -5 -5 -5 -7
6 6 5 6 6 5 5 5 4 4 4 3 3 3 2 2 1 1 -0 -0 -1 -2 -2 -3 -4 -5 -5 -5 -5 -6 -7 -7
5 5 5 5 5 5 5 4 4 3 3 3 3 2 2 1 0 -0 -0 -1 -2 -3 -4 -4 -4 -5 -5 -6 -6 -6 -7 -8
5 5 4 5 5 5 4 4 3 3 3 3 2 2 1 0 -0 -0 -1 -3 -3 -3 -4 -5 -5 -5 -6 -6 -7 -8 -8 -8

GFSFLT1_700_temp_072.txt.gz
Temp
5 4 4 2 2 2 1 1 1 1 1 1 -0 -0 1 1 2 2 1 1 1 1 1 1 1 1 1 1 1 1 1 0
4 5 4 4 2 2 2 2 2 1 1 1 1 2 2 1 2 2 2 2 1 1 1 2 1 1 1 1 1 1 0 -0
4 4 3 4 3 3 3 3 2 2 2 2 2 2 2 2 2 2 2 2 1 1 1 2 1 1 1 1 0 0 -0 -0
5 5 5 4 4 4 4 4 2 3 3 3 3 2 2 3 3 3 2 2 2 2 1 2 1 0 1 1 0 0 -1 -0
5 6 5 5 4 5 5 4 4 4 4 4 4 3 4 3 3 3 3 2 2 2 1 1 1 -0 1 1 0 -0 -1 -1
7 6 6 6 5 5 5 4 4 3 3 2 4 3 3 3 3 3 2 2 2 2 1 1 1 0 -0 0 1 0 -1 -1
6 6 6 6 5 5 5 5 4 5 5 4 4 4 3 3 3 3 2 2 1 1 1 1 1 0 -0 -0 -0 -1 -0 -1
6 5 6 6 6 6 5 5 5 5 5 4 4 4 3 3 3 3 3 2 2 2 1 1 0 0 0 0 -1 -1 -1 -1
7 6 5 6 7 6 6 6 5 5 5 5 4 4 3 3 2 2 2 2 2 2 1 1 1 0 0 0 -0 -1 -0 -2
7 7 6 5 5 6 6 6 6 5 5 5 4 4 3 3 3 3 2 2 2 2 1 1 1 1 -0 0 -1 -1 -1 -2
7 7 7 6 5 5 6 6 6 5 5 5 5 4 4 3 3 3 2 2 2 2 2 1 1 0 -1 -1 -1 -2 -1 -1
7 7 7 6 6 5 5 5 5 5 5 5 5 4 4 3 3 3 2 2 2 2 1 1 0 -0 -1 -1 -1 -2 -3 -2
7 7 7 6 6 5 5 4 4 5 4 4 5 4 4 3 3 3 2 2 2 2 1 0 -0 -1 -2 -2 -2 -2 -3 -3
6 6 7 7 6 6 4 4 4 5 3 3 3 5 4 3 3 2 2 2 2 1 1 -0 -1 -2 -2 -3 -3 -3 -4 -4
6 6 6 6 6 6 5 5 5 5 4 5 4 4 3 3 2 2 2 2 1 1 -0 -1 -1 -1 -3 -4 -3 -5 -5 -5
6 6 5 5 5 6 6 6 6 6 5 4 3 3 3 2 2 2 2 2 1 1 -0 -1 -2 -2 -3 -3 -4 -6 -5 -5
6 6 5 4 5 5 5 5 5 5 4 4 4 3 3 2 2 2 1 1 0 -0 -1 -2 -2 -3 -5 -4 -5 -5 -6 -6
6 6 5 5 5 5 5 5 5 4 4 4 4 3 3 2 2 2 1 0 -1 -1 -1 -3 -4 -4 -4 -5 -5 -6 -6 -6
5 5 5 5 5 5 5 4 4 4 4 3 3 3 3 2 2 1 0 -0 -1 -2 -4 -4 -4 -4 -4 -5 -6 -6 -7 -7

GFSFLT1_700_temp_075.txt.gz
Temp
4 5 4 3 1 1 1 1 2 2 2 1 1 1 0 -0 -0 0 1 2 1 1 1 1 1 1 1 1 1 1 1 0
4 4 5 4 3 3 3 3 3 3 3 3 3 2 1 1 1 1 1 1 1 2 1 1 1 1 1 1 1 1 1 0
5 4 4 4 4 4 4 3 4 4 3 3 2 2 3 2 2 1 2 2 2 2 2 1 1 1 1 1 1 1 0 1
7 6 5 5 5 5 4 4 4 4 3 3 2 2 2 2 2 3 3 2 2 1 1 1 1 1 1 1 1 0 0 0
7 6 6 6 6 5 5 5 5 4 4 4 4 4 4 4 4 3 3 2 2 2 1 1 2 1 1 1 0 -0 0 -0
7 7 6 6 6 6 5 5 5 5 5 4 4 4 4 3 3 3 3 3 3 2 2 1 2 1 1 -0 0 -1 -0 -0
7 7 6 6 6 5 6 6 5 5 4 4 5 4 3 3 4 3 3 2 2 2 2 1 1 1 1 1 0 -1 -0 -1
7 7 7 6 6 6 6 6 6 5 5 5 4 3 3 3 3 3 3 3 2 1 1 1 1 1 1 0 0 -1 -1 -1
7 7 7 6 6 6 6 6 6 5 5 5 4 4 3 3 3 3 3 3 2 1 1 1 1 1 1 1 0 -0 -0 -1
7 7 7 7 6 6 6 6 6 5 5 5 4 4 4 4 3 3 3 2 2 2 1 1 2 1 1 0 0 -0 -1 -1
7 7 7 6 7 7 6 6 6 6 5 5 5 5 3 3 3 3 3 2 2 2 2 2 2 1 1 0 -1 -1 -1 -2
7 6 6 7 7 6 6 5 5 5 5 5 5 5 5 3 3 3 3 2 2 2 2 2 2 1 1 -0 -0 -1 -2 -3
7 7 6 6 6 6 6 5 4 4 5 4 3 4 4 2 2 1 1 1 2 2 2 2 1 1 -0 -0 -1 -2 -2 -3
7 7 7 6 6 5 5 4 5 5 5 4 3 3 4 3 2 1 2 2 2 1 2 2 1 0 -0 -2 -2 -2 -3 -4
7 6 6 6 6 6 5 5 5 5 4 4 4 4 4 3 3 3 2 2 2 2 2 1 1 -0 -1 -2 -3 -3 -4 -4
6 6 6 6 6 6 6 6 5 5 4 4 4 4 4 3 3 2 2 2 2 2 1 1 0 -1 -2 -2 -3 -4 -4 -5
6 6 6 6 6 6 5 5 5 5 4 4 4 4 3 3 3 3 2 2 2 1 1 0 -2 -2 -2 -2 -3 -4 -5 -5
6 6 6 6 6 5 5 5 5 5 4 4 4 4 3 3 3 2 2 2 1 1 -1 -2 -2 -2 -3 -4 -5 -5 -6 -6
6 6 6 5 5 5 4 4 4 4 4 4 4 3 3 3 2 2 2 2 1 0 -1 -1 -2 -3 -4 -5 -5 -6 -7 -7

GFSFLT1_700_temp_081.txt.gz
Temp
5 5 3 1 2 2 3 2 3 2 2 2 1 2 -1 -0 0 -1 0 0 0 -0 0 1 1 2 2 1 1 1 1 1
5 5 5 1 1 3 1 2 2 2 2 2 2 2 0 0 1 -1 -1 -0 -0 -0 1 1 1 1 1 1 1 1 1 0
6 5 5 5 4 4 3 2 1 1 1 1 1 1 0 0 1 -1 -0 -1 -1 0 1 1 1 1 1 1 1 1 1 0
6 5 5 5 5 6 5 5 4 2 1 1 1 1 -0 0 -0 -0 -0 -0 -0 0 0 1 1 1 2 2 1 1 1 0
6 6 6 6 5 5 5 5 5 5 5 4 4 3 3 3 3 2 1 1 1 1 1 1 1 2 2 1 1 1 0 1
6 6 6 6 6 6 5 5 5 5 5 4 4 4 4 3 3 3 3 2 2 2 1 1 2 2 1 1 0 1 0 -0
7 7 7 6 6 6 6 6 6 5 5 5 5 4 3 3 3 3 2 2 2 2 2 2 2 2 1 1 0 0 0 -0
7 7 7 7 7 6 6 6 6 5 5 5 5 4 4 4 3 3 3 3 3 3 2 2 2 1 1 1 1 1 1 0
7 7 7 6 6 6 6 6 6 6 5 5 5 5 5 4 4 4 3 3 3 2 2 2 2 1 1 1 1 1 1 0
7 7 7 6 6 6 6 6 6 6 6 5 5 5 5 5 4 4 4 3 3 2 2 1 1 1 0 0 0 0 0 1
8 7 7 7 6 6 6 6 6 5 5 5 5 5 4 4 4 4 3 3 3 2 1 1 0 0 0 -0 -0 -0 -0 0
8 7 7 6 6 6 6 6 6 5 5 5 4 4 4 4 4 4 4 3 3 1 0 0 -0 0 -0 1 -0 -1 0 0
8 7 7 6 6 6 6 6 6 5 4 3 4 4 4 4 3 4 3 2 2 1 0 0 1 1 1 1 1 1 0 -0
7 7 7 7 7 6 6 6 6 5 4 5 5 5 4 4 4 3 3 3 2 1 1 1 1 1 1 1 1 0 0 -1
7 7 7 7 6 6 6 6 6 6 5 5 5 4 4 4 3 3 3 3 2 2 2 1 1 1 2 0 1 0 -0 -1
7 7 7 7 7 6 6 6 6 6 5 5 5 5 4 3 3 2 2 2 2 2 2 1 1 2 1 1 0 -1 -1 -2
7 7 7 7 6 6 6 6 6 5 5 5 4 4 3 3 3 2 2 2 2 2 2 2 1 1 0 -1 -1 -2 -3 -3
7 7 7 7 6 6 6 6 5 5 4 4 4 3 3 3 3 3 3 2 2 2 2 1 1 -0 -1 -1 -2 -3 -4 -4
7 7 7 6 6 6 6 5 5 4 4 3 3 3 2 2 2 2 2 2 2 1 1 1 0 -1 -2 -3 -4 -4 -4 -4

GFSFLT1_700_temp_084.txt.gz
Temp
5 5 3 2 2 2 2 2 3 2 2 2 2 1 1 1 0 -0 -1 -2 -2 -1 -2 -1 -1 1 1 1 1 1 1 1
5 5 4 1 2 2 3 2 2 2 2 2 1 1 1 0 0 -1 -1 -1 -2 -2 -1 -0 -1 1 1 1 1 1 1 1
5 5 5 3 3 2 3 3 2 2 2 2 1 1 1 -0 -2 -2 -2 -2 -2 -1 -1 -1 -1 0 1 1 1 1 1 1
6 5 5 6 5 4 3 2 2 3 2 2 2 1 0 -0 -0 -1 -1 -2 -2 -1 -1 -1 -0 1 1 1 1 1 1 1
6 6 5 6 5 5 5 4 3 2 3 1 1 0 1 0 0 -0 -0 -1 -1 -1 -1 -1 -0 1 1 1 1 1 1 1
6 6 6 6 5 5 5 5 5 5 5 4 3 2 1 -0 -0 -0 -1 -1 -1 -1 -0 0 1 1 2 1 1 1 1 0
6 7 7 6 6 6 6 5 5 5 5 5 5 4 4 3 4 4 3 2 3 3 3 2 2 2 2 1 1 1 1 -0
7 7 6 7 6 6 6 6 5 5 5 5 5 5 4 4 4 3 3 3 3 3 3 2 2 1 1 1 -0 0 0 0
7 7 6 6 6 6 6 6 6 5 5 5 5 5 4 4 4 3 3 3 2 2 2 2 1 1 -0 -1 -1 -0 -0 0
7 7 7 6 6 6 6 6 6 6 5 5 5 5 4 4 4 3 3 3 3 2 1 1 1 1 0 0 -0 0 0 1
8 7 7 7 6 6 6 6 6 5 5 5 5 4 4 4 4 4 3 3 2 2 1 0 -0 0 1 1 1 0 -0 -0
8 8 7 7 6 6 6 6 6 5 5 5 5 4 4 4 4 3 3 3 2 2 2 1 0 -0 0 0 -0 0 -0 -1
8 7 7 7 7 6 6 6 5 5 5 5 4 4 4 4 3 3 3 3 2 2 1 -0 0 0 1 1 1 1 -1 -0
8 7 7 7 6 6 6 6 6 6 5 5 5 4 4 3 4 3 3 3 3 3 2 1 1 -0 1 0 1 0 -0 -0
8 7 7 7 6 6 6 6 6 6 5 5 4 4 4 3 4 3 3 3 3 2 2 2 1 1 1 1 1 1 0 -1
7 7 7 7 7 6 6 6 6 6 5 5 5 5 4 4 3 3 3 3 2 2 2 2 2 1 1 1 1 0 -1 -1
7 7 7 7 7 6 6 6 6 5 5 5 5 4 4 4 3 3 3 3 2 2 2 2 2 2 1 1 1 -0 -1 -1
7 7 7 7 7 6 6 6 6 5 5 5 4 4 4 3 3 3 3 2 2 2 2 1 1 1 1 1 -0 -1 -2 -1
7 7 7 7 7 6 6 6 5 5 5 4 4 4 3 3 3 2 2 2 1 1 1 1 0 -0 -1 -1 -2 -2 -2 -2

GFSFLT1_700_temp_087.txt.gz
Temp
6 5 4 2 1 2 2 2 2 2 2 2 2 1 0 0 -0 -2 -3 -3 -2 -2 -1 -1 -1 -1 -0 0 1 1 0 0
6 5 5 2 2 2 2 2 2 2 1 2 2 1 1 0 -0 -1 -3 -2 -2 -2 -1 -1 -1 -1 -1 -0 1 1 1 0
6 6 5 4 3 3 3 3 2 2 2 2 1 1 1 1 -0 -0 -1 -2 -2 -2 -2 -1 -1 -2 -1 -0 1 1 1 0
6 6 6 5 4 3 3 3 3 2 2 2 1 1 1 1 0 -0 -1 -1 -1 -1 -2 -2 -2 -2 -1 -0 0 1 0 0
6 7 6 5 5 5 4 3 2 2 2 2 2 1 1 1 0 -0 -0 -1 -1 -1 -2 -2 -2 -2 -1 -0 0 1 0 0
7 7 6 6 5 6 6 5 3 2 3 2 1 1 1 0 1 0 -0 -1 -1 -1 -2 -2 -2 -1 -1 -0 -0 1 0 0
7 7 7 6 6 6 6 6 6 5 4 4 3 2 1 0 -0 -0 -0 0 -0 -0 -1 -1 -1 -1 -0 -0 -0 1 1 0
7 7 7 7 6 6 6 6 5 5 5 5 5 4 4 2 1 1 1 0 1 0 -1 -1 -0 -0 0 -0 -0 1 1 -0
7 7 6 6 6 6 6 6 6 5 5 5 5 5 4 4 4 3 3 3 3 2 1 1 1 1 0 -0 -0 0 0 0
7 7 6 6 6 6 6 6 6 5 5 5 5 5 4 4 4 4 4 3 3 3 3 2 1 1 0 0 0 0 -0 -0
8 7 7 6 6 6 6 6 6 5 5 5 5 5 5 4 4 4 4 3 3 3 2 2 2 1 0 -0 0 0 -1 -1
8 8 7 7 6 6 6 6 6 6 5 5 5 5 5 4 4 4 4 3 3 3 3 2 2 1 0 -1 -1 -1 -0 -1
8 8 7 7 7 6 6 6 5 5 5 5 5 5 4 4 4 4 3 3 3 2 2 1 1 0 0 -0 -0 1 -1 -1
8 7 7 7 7 6 6 6 6 5 5 5 5 5 5 4 3 3 2 2 2 2 1 1 1 0 0 1 0 -0 0 0
7 7 7 7 7 6 6 6 6 6 5 5 5 5 4 4 3 3 3 3 2 2 2 2 2 2 1 1 1 1 1 1
8 7 7 7 7 7 6 6 6 6 6 5 5 5 5 4 4 3 3 3 3 2 2 2 2 2 2 1 1 1 1 1
7 7 7 7 7 7 6 6 6 6 5 5 5 5 5 4 4 3 3 3 3 3 3 2 2 2 2 2 1 1 1 0
7 7 7 7 7 7 7 6 6 6 5 5 5 5 5 4 4 3 3 3 3 2 2 2 2 2 2 2 1 1 -0 -1
7 7 7 7 7 7 6 6 6 6 5 5 5 4 4 4 4 3 3 2 2 2 2 1 1 1 1 0 -1 -1 -0 -0